Location: Newark
(52.4787°S, 179.0532°W)
Time: 07:26:26
(UTC+00:00)

Transit 2A Rocket - Pass Details

Date: 27 November 2019
Orbit: 594 x 909 km, 66.7° (Epoch: 14 December)

Event Time Altitude Azimuth Distance (km) Brightness Sun altitude
Rises 01:21:00 0° 229° (SW) 3,557 8.5 53.4°
Reaches altitude 10° 01:24:00 10° 216° (SW) 2,626 7.8 53.1°
Maximum altitude 01:29:05 26° 161° (SSE) 1,732 6.8 52.6°
Drops below altitude 10° 01:34:06 10° 105° (ESE) 2,582 7.5 52.0°
Sets 01:37:00 0° 92° (E) 3,486 8.1 51.7°
